When you browse on this site, cookies collect data to enhance your experience and personalize the content and advertising you see.
Visit our Privacy Policy to learn more. By continuing to use the site, you agree to this use of cookies and data.
  • In Hungary
  • List of Countries
  • For 7 days
  • Water Temperature
  • Weather Map
  • News
  • Weather Widgets
  • user-avatar
    Login

    Hourly Weather Camaret-sur-Mer

    Today, 17 November, Sunday

    Time Temperature Precipitation Wind Pressure Humidity
    00:00 +7°C° 0 mm 2 mps 757 mmHg 84%
    01:00 +7°C° 0 mm 2 mps 757 mmHg 85%
    02:00 +7°C° 0 mm 2 mps 756 mmHg 86%
    03:00 +7°C° 0 mm 2 mps 756 mmHg 87%
    04:00 +7°C° 0.1 mm 2 mps 756 mmHg 87%
    05:00 +7°C° 0.1 mm 3 mps 756 mmHg 87%
    06:00 +7°C° 0 mm 3 mps 756 mmHg 87%
    07:00 +7°C° 0.1 mm 3 mps 756 mmHg 87%
    08:00 +7°C° 0.1 mm 3 mps 757 mmHg 86%
    09:00 +8°C° 0.1 mm 3 mps 757 mmHg 85%
    10:00 +8°C° 0.2 mm 3 mps 757 mmHg 82%
    11:00 +8°C° 0.2 mm 3 mps 757 mmHg 80%
    12:00 +9°C° 0 mm 2 mps 758 mmHg 74%
    13:00 +9°C° 0.1 mm 3 mps 758 mmHg 75%
    14:00 +10°C° 0.1 mm 3 mps 758 mmHg 76%
    15:00 +10°C° 0.1 mm 4 mps 758 mmHg 76%
    16:00 +8°C° 0 mm 5 mps 758 mmHg 77%
    17:00 +7°C° 0 mm 5 mps 758 mmHg 79%
    18:00 +5°C° 0 mm 6 mps 759 mmHg 80%
    19:00 +5°C° 0 mm 6 mps 759 mmHg 83%
    20:00 +6°C° 0 mm 5 mps 759 mmHg 85%
    21:00 +6°C° 0 mm 5 mps 759 mmHg 87%
    22:00 +6°C° 0.1 mm 5 mps 760 mmHg 87%
    23:00 +6°C° 0.1 mm 4 mps 760 mmHg 87%

    Tomorrow, 18 November, Monday

    Time Temperature Precipitation Wind Pressure Humidity
    00:00 +6°C° 0.1 mm 4 mps 760 mmHg 86%
    01:00 +6°C° 0.1 mm 5 mps 760 mmHg 86%
    02:00 +7°C° 0.1 mm 5 mps 760 mmHg 86%
    03:00 +7°C° 0.1 mm 6 mps 760 mmHg 86%
    04:00 +7°C° 0.1 mm 6 mps 761 mmHg 87%
    05:00 +5°C° 0.1 mm 6 mps 761 mmHg 89%
    06:00 +5°C° 0.1 mm 6 mps 761 mmHg 90%
    07:00 +7°C° 0 mm 5 mps 761 mmHg 89%
    08:00 +7°C° 0 mm 4 mps 762 mmHg 88%
    09:00 +8°C° 0 mm 3 mps 762 mmHg 88%
    10:00 +9°C° 0.1 mm 3 mps 762 mmHg 84%
    11:00 +10°C° 0.1 mm 3 mps 762 mmHg 80%
    12:00 +11°C° 0.1 mm 3 mps 762 mmHg 76%
    13:00 +11°C° 0 mm 3 mps 762 mmHg 77%
    14:00 +11°C° 0 mm 3 mps 762 mmHg 77%
    15:00 +10°C° 0 mm 3 mps 761 mmHg 77%
    16:00 +9°C° 0 mm 3 mps 762 mmHg 80%
    17:00 +8°C° 0 mm 2 mps 762 mmHg 84%
    18:00 +7°C° 0 mm 2 mps 762 mmHg 87%
    19:00 +7°C° 0 mm 2 mps 762 mmHg 88%
    20:00 +6°C° 0 mm 2 mps 762 mmHg 88%
    21:00 +5°C° 0 mm 3 mps 762 mmHg 89%
    22:00 +5°C° 0 mm 3 mps 761 mmHg 90%
    23:00 +5°C° 0 mm 4 mps 761 mmHg 91%

    Day after tomorrow, 19 November, Tuesday

    Time Temperature Precipitation Wind Pressure Humidity
    00:00 +5°C° 0 mm 4 mps 761 mmHg 92%
    01:00 +5°C° 0 mm 4 mps 761 mmHg 92%
    02:00 +5°C° 0 mm 5 mps 760 mmHg 92%
    03:00 +5°C° 0 mm 5 mps 760 mmHg 92%
    04:00 +5°C° 0 mm 5 mps 759 mmHg 91%
    05:00 +6°C° 0 mm 5 mps 759 mmHg 89%
    06:00 +5°C° 0 mm 6 mps 759 mmHg 88%
    07:00 +7°C° 0 mm 6 mps 758 mmHg 87%
    08:00 +7°C° 0 mm 6 mps 758 mmHg 85%
    09:00 +8°C° 0 mm 7 mps 758 mmHg 84%
    10:00 +9°C° 0.1 mm 8 mps 758 mmHg 81%
    11:00 +10°C° 0.1 mm 8 mps 757 mmHg 79%
    12:00 +11°C° 0.1 mm 9 mps 757 mmHg 76%
    13:00 +9°C° 0.1 mm 10 mps 757 mmHg 77%
    14:00 +9°C° 0.1 mm 10 mps 756 mmHg 77%
    15:00 +9°C° 0.1 mm 10 mps 756 mmHg 78%
    16:00 +9°C° 0.7 mm 10 mps 756 mmHg 81%
    17:00 +8°C° 0.7 mm 10 mps 756 mmHg 85%
    18:00 +8°C° 0.7 mm 10 mps 755 mmHg 88%
    19:00 +8°C° 0.2 mm 9 mps 755 mmHg 87%
    20:00 +8°C° 0.2 mm 9 mps 755 mmHg 87%
    21:00 +9°C° 0.2 mm 8 mps 755 mmHg 86%
    22:00 +9°C° 0 mm 7 mps 755 mmHg 86%
    23:00 +8°C° 0 mm 6 mps 755 mmHg 85%

    20 November, Wednesday

    Time Temperature Precipitation Wind Pressure Humidity
    00:00 +7°C° 0 mm 5 mps 755 mmHg 85%
    01:00 +7°C° 0 mm 5 mps 754 mmHg 87%
    02:00 +7°C° 0 mm 5 mps 754 mmHg 90%
    03:00 +7°C° 0 mm 5 mps 754 mmHg 92%
    04:00 +7°C° 0 mm 6 mps 753 mmHg 91%
    05:00 +7°C° 0 mm 6 mps 753 mmHg 90%
    06:00 +8°C° 0 mm 7 mps 752 mmHg 89%
    07:00 +8°C° 0 mm 7 mps 752 mmHg 87%
    08:00 +7°C° 0 mm 8 mps 752 mmHg 86%
    09:00 +9°C° 0 mm 8 mps 751 mmHg 85%
    10:00 +10°C° 0.1 mm 9 mps 751 mmHg 83%
    11:00 +9°C° 0.1 mm 10 mps 751 mmHg 80%
    12:00 +11°C° 0.1 mm 10 mps 750 mmHg 77%
    13:00 +11°C° 0.4 mm 10 mps 750 mmHg 79%
    14:00 +11°C° 0.4 mm 10 mps 749 mmHg 80%
    15:00 +9°C° 0.4 mm 10 mps 748 mmHg 81%
    16:00 +9°C° 0.9 mm 10 mps 748 mmHg 83%
    17:00 +9°C° 0.9 mm 10 mps 747 mmHg 85%
    18:00 +9°C° 0.9 mm 10 mps 747 mmHg 87%
    19:00 +9°C° 1.1 mm 10 mps 747 mmHg 87%
    20:00 +9°C° 1.1 mm 10 mps 746 mmHg 86%
    21:00 +9°C° 1.1 mm 10 mps 746 mmHg 86%
    22:00 +8°C° 0.3 mm 9 mps 746 mmHg 86%
    23:00 +9°C° 0.3 mm 8 mps 746 mmHg 86%

    21 November, Thursday

    Time Temperature Precipitation Wind Pressure Humidity
    00:00 +9°C° 0.3 mm 7 mps 745 mmHg 86%
    01:00 +8°C° 0.4 mm 6 mps 745 mmHg 87%
    02:00 +8°C° 0.4 mm 6 mps 745 mmHg 87%
    03:00 +8°C° 0.4 mm 6 mps 744 mmHg 88%
    04:00 +8°C° 0.4 mm 6 mps 744 mmHg 88%
    05:00 +8°C° 0.4 mm 6 mps 744 mmHg 88%
    06:00 +8°C° 0.4 mm 6 mps 744 mmHg 87%
    07:00 +8°C° 0.1 mm 6 mps 744 mmHg 86%
    08:00 +8°C° 0.1 mm 6 mps 744 mmHg 84%
    09:00 +8°C° 0.1 mm 7 mps 744 mmHg 82%
    10:00 +9°C° 0.4 mm 8 mps 744 mmHg 78%
    11:00 +10°C° 0.4 mm 9 mps 744 mmHg 74%
    12:00 +9°C° 0.4 mm 10 mps 743 mmHg 71%
    13:00 +9°C° 0.4 mm 10 mps 743 mmHg 71%
    14:00 +9°C° 0.4 mm 10 mps 743 mmHg 72%
    15:00 +10°C° 0.4 mm 9 mps 743 mmHg 73%
    16:00 +8°C° 0.4 mm 9 mps 743 mmHg 74%
    17:00 +8°C° 0.4 mm 9 mps 743 mmHg 75%
    18:00 +7°C° 0.4 mm 9 mps 744 mmHg 77%
    19:00 +7°C° 0.3 mm 9 mps 744 mmHg 77%
    20:00 +7°C° 0.3 mm 9 mps 744 mmHg 78%
    21:00 +7°C° 0.3 mm 9 mps 744 mmHg 79%
    22:00 +7°C° 0.3 mm 9 mps 745 mmHg 79%
    23:00 +7°C° 0.3 mm 9 mps 745 mmHg 79%

    22 November, Friday

    Time Temperature Precipitation Wind Pressure Humidity
    00:00 +7°C° 0.3 mm 9 mps 745 mmHg 78%
    01:00 +7°C° 0.4 mm 9 mps 745 mmHg 79%
    02:00 +7°C° 0.4 mm 10 mps 744 mmHg 79%
    03:00 +7°C° 0.4 mm 10 mps 744 mmHg 79%
    04:00 +7°C° 0.5 mm 10 mps 744 mmHg 79%
    05:00 +8°C° 0.5 mm 10 mps 744 mmHg 79%
    06:00 +8°C° 0.5 mm 10 mps 744 mmHg 78%
    07:00 +8°C° 0.3 mm 10 mps 744 mmHg 78%
    08:00 +8°C° 0.3 mm 9 mps 744 mmHg 79%
    09:00 +9°C° 0.3 mm 8 mps 745 mmHg 79%
    10:00 +10°C° 0.4 mm 8 mps 745 mmHg 77%
    11:00 +10°C° 0.4 mm 8 mps 745 mmHg 75%
    12:00 +11°C° 0.4 mm 7 mps 746 mmHg 74%
    13:00 +10°C° 0.5 mm 7 mps 746 mmHg 74%
    14:00 +10°C° 0.5 mm 6 mps 747 mmHg 75%
    15:00 +10°C° 0.5 mm 6 mps 747 mmHg 76%
    16:00 +9°C° 0.1 mm 5 mps 748 mmHg 78%
    17:00 +8°C° 0.1 mm 5 mps 748 mmHg 81%
    18:00 +7°C° 0.1 mm 4 mps 749 mmHg 83%
    19:00 +7°C° 0 mm 4 mps 750 mmHg 83%
    20:00 +7°C° 0 mm 4 mps 750 mmHg 84%
    21:00 +7°C° 0 mm 4 mps 751 mmHg 84%
    22:00 +7°C° 0 mm 4 mps 752 mmHg 84%
    23:00 +7°C° 0 mm 4 mps 752 mmHg 84%
    Show more